Location: Trebic
(49.2170°N, 15.8830°E)
Time: 19:30:58
(UTC+02:00)

Transit 2A Rocket - Pass Details

Date: 28 July 2019
Orbit: 590 x 913 km, 66.7° (Epoch: 24 August)

Event Time Altitude Azimuth Distance (km) Brightness Sun altitude
Rises 09:20:49 0° 326° (NW) 3,229 7.9 36.6°
Reaches altitude 10° 09:23:39 10° 338° (NNW) 2,240 7.2 37.0°
Maximum altitude 09:27:57 27° 36° (NE) 1,321 6.8 37.7°
Drops below altitude 10° 09:31:56 10° 94° (E) 2,064 8.5 38.3°
Sets 09:34:26 0° 107° (ESE) 2,926 8.9 38.7°
